Regional Weather Roundup
Issued by NWS

Home | Current Version | Previous Version | Graphics & Text | Print | Product List | Glossary On
Versions: 1 2 3 4 5 6 7 8 9 10 11 12 13 14 15 16 17 18 19 20 21 22 23 24 25 26 27
000
ASUS45 KCYS 242110
RWRWY

WYOMING REGIONAL WEATHER ROUNDUP
NATIONAL WEATHER SERVICE CHEYENNE WY
300 PM MDT WED AUG 24 2016

NOTE:  "FAIR" INDICATES FEW OR NO CLOUDS BELOW 12,000 FEET
WITH NO SIGNIFICANT WEATHER AND/OR OBSTRUCTIONS TO VISIBILITY.

WYZ001-242200-
YELLOWSTONE NATIONAL PARK

CITY           SKY/WX    TMP DP  RH WIND       PRES   REMARKS
LK YELLOWSTONE   N/A     54  28  36 MISG      30.32R
W YELLOWSTONE  NOT AVBL

$$
WYZ002>013-054>058-071-098>099-242200-
NORTHERN WYOMING

CITY           SKY/WX    TMP DP  RH WIND       PRES   REMARKS
JACKSON        MOSUNNY   70  18  13 SW6       30.18F
CODY           PTSUNNY   63  45  51 N13G24    30.25S
GREYBULL       FAIR      72  38  29 N15G26    30.16F
WORLAND        FAIR      73  37  27 VRB3      30.17F
SHERIDAN       CLOUDY    64  43  46 NW12      30.24S
BUFFALO        PTSUNNY   64  41  42 N15G28    30.27S
GILLETTE       CLOUDY    67  42  40 N15       30.21S
HULETT         MOCLDY    68  41  37 N8G16     30.21F
NEWCASTLE      FAIR      72  34  25 NW5G20    30.19F

$$
WYZ014>020-022>026-101>103-242200-
CENTRAL WYOMING

CITY           SKY/WX    TMP DP  RH WIND       PRES   REMARKS
BIG PINEY      FAIR      72  18  13 SW8       30.20F
PINEDALE       FAIR      68  14  12 N6        30.22F
DUBOIS         FAIR      63  28  27 SE13G20   30.24F
LANDER         FAIR      69  37  30 N6        30.19F
RIVERTON       FAIR      70  35  27 E9G21     30.20F
CASPER         FAIR      69  35  28 SE6G18    30.19F
DOUGLAS        FAIR      74  33  22 VRB6      30.17F

$$
WYZ021-027>030-104>119-242200-
SOUTHERN WYOMING

CITY           SKY/WX    TMP DP  RH WIND       PRES   REMARKS
EVANSTON       FAIR      72   3   6 W23G35    30.25R
FORT BRIDGER   CLEAR     75   7   7 W25G33    30.25S
ROCK SPRINGS   FAIR      75  15  10 W16G23    30.18F
DIXON          FAIR      73  30  20 W32G45    30.20R
RAWLINS        CLOUDY    69  34  27 SE8       30.20F
SARATOGA       LGT RAIN  63  41  45 N13G21    30.23R
LARAMIE        PTSUNNY   62  39  42 SE16G29   30.23R
CHEYENNE       FAIR      66  43  43 S22G30    30.22F
TORRINGTON     FAIR      76  46  34 SE15G21   30.13F
PINE BLUFFS    FAIR      68  36  30 S12G23    30.21S

$$




USA.gov is the U.S. government's official web portal to all federal, state and local government web resources and services.